EW9274 Weather Reports


Display with metric or nautical units.
time (UTC)temp
F
wind
direction
speed
MPH
gust
MPH
rain 1hr
in
rain 24hr
in
rain mn
in
humidity
%
barometer
mb
20260506091517 35 219 0.0 0.0 0.00 0.00 0.00 77 1011.8
20260506091006 35 200 0.0 0.0 0.00 0.00 0.00 76 1012.0
20260506090502 36 206 0.0 0.0 0.00 0.00 0.00 76 1011.8
20260506090016 36 213 0.0 0.0 0.00 0.00 0.00 76 1011.7
20260506085505 36 213 0.0 0.0 0.00 0.00 0.00 75 1011.8
20260506085002 36 213 0.0 0.0 0.00 0.00 0.00 75 1011.6
20260506084525 36 213 0.0 0.0 0.00 0.00 0.00 74 1011.6
20260506084010 36 213 0.0 0.0 0.00 0.00 0.00 74 1011.6
20260506083503 37 213 0.0 0.0 0.00 0.00 0.00 73 1011.5
20260506083017 37 213 0.0 0.0 0.00 0.00 0.00 72 1011.5
20260506082507 37 247 0.0 0.0 0.00 0.00 0.00 71 1011.5
20260506082003 37 247 0.0 0.0 0.00 0.00 0.00 71 1011.4
20260506081518 37 247 0.0 0.0 0.00 0.00 0.00 71 1011.4
20260506081010 37 247 0.0 0.0 0.00 0.00 0.00 70 1011.4
20260506080504 38 348 0.0 0.0 0.00 0.00 0.00 70 1011.3
20260506073503 39 348 0.0 0.0 0.00 0.00 0.00 66 1011.0
20260506073030 39 348 0.0 0.0 0.00 0.00 0.00 66 1011.0
20260506072509 39 348 0.0 0.0 0.00 0.00 0.00 65 1011.0
20260506072003 39 348 0.0 0.0 0.00 0.00 0.00 65 1011.0
20260506071519 39 348 0.0 0.0 0.00 0.00 0.00 64 1011.2
20260506071009 40 348 0.0 2.0 0.00 0.00 0.00 64 1011.1
20260506070502 40 348 0.0 2.0 0.00 0.00 0.00 62 1011.2
20260506062503 43 350 0.0 2.0 0.00 0.00 0.00 47 1011.3
20260506062006 43 352 1.0 2.0 0.00 0.00 0.00 47 1011.2
20260506061526 43 352 0.0 2.0 0.00 0.00 0.00 47 1011.2
20260506061003 44 352 0.0 3.0 0.00 0.00 0.00 47 1011.3
20260506060505 44 352 2.0 3.0 0.00 0.00 0.00 46 1011.2
20260506051003 45 5 0.0 2.0 0.00 0.00 0.00 45 1011.5
20260506050506 44 5 0.0 2.0 0.00 0.00 0.00 47 1011.6
20260506045010 45 11 1.0 2.0 0.00 0.00 0.00 45 1011.5
20260506044536 45 9 1.0 2.0 0.00 0.00 0.00 45 1011.5
20260506044004 45 352 1.0 2.0 0.00 0.00 0.00 45 1011.4
20260506043509 45 360 1.0 3.0 0.00 0.00 0.00 44 1011.4
20260506043030 45 15 1.0 3.0 0.00 0.00 0.00 44 1011.4
20260506042504 45 32 0.0 2.0 0.00 0.00 0.00 43 1011.4
20260506042009 46 9 0.0 2.0 0.00 0.00 0.00 43 1011.3
20260506041530 46 22 0.0 2.0 0.00 0.00 0.00 43 1011.2
20260506041003 46 342 0.0 2.0 0.00 0.00 0.00 43 1011.1
20260506040506 46 325 0.0 2.0 0.00 0.00 0.00 42 1011.1
20260506040033 46 352 0.0 2.0 0.00 0.00 0.00 43 1011.1
20260506035508 46 18 0.0 2.0 0.00 0.00 0.00 42 1011.1
20260506035006 46 35 0.0 3.0 0.00 0.00 0.00 42 1011.0
20260506034533 47 69 0.0 3.0 0.00 0.00 0.00 41 1011.0
20260506034005 47 66 1.0 5.0 0.00 0.00 0.00 41 1011.0
20260506033511 47 320 0.0 5.0 0.00 0.00 0.00 41 1011.0
20260506033030 47 9 2.0 6.0 0.00 0.00 0.00 41 1011.1
20260506032507 47 15 2.0 6.0 0.00 0.00 0.00 41 1011.1
20260506032012 47 37 2.0 3.0 0.00 0.00 0.00 41 1011.0
20260506031539 48 9 1.0 5.0 0.00 0.00 0.00 41 1011.0
20260506031007 48 74 2.0 5.0 0.00 0.00 0.00 40 1011.0
20260506030509 48 96 2.0 4.0 0.00 0.00 0.00 40 1010.9
20260506030016 48 59 1.0 7.0 0.00 0.00 0.00 40 1010.8
20260506025506 48 43 2.0 7.0 0.00 0.00 0.00 39 1010.8
20260506025012 49 332 1.0 5.0 0.00 0.00 0.00 39 1010.8
20260506024518 49 59 2.0 4.0 0.00 0.00 0.00 38 1010.7
20260506024008 49 55 1.0 6.0 0.00 0.00 0.00 38 1010.7
20260506023513 49 53 2.0 8.0 0.00 0.00 0.00 38 1010.7
20260506023034 50 71 1.0 12.0 0.00 0.00 0.00 38 1010.7
20260506022506 50 168 4.0 12.0 0.00 0.00 0.00 38 1010.5
20260506022021 50 5 4.0 9.0 0.00 0.00 0.00 38 1010.4
20260506021532 50 338 0.0 9.0 0.00 0.00 0.00 38 1010.3
20260506021011 50 323 3.0 8.0 0.00 0.00 0.00 37 1010.1
20260506020503 50 309 3.0 8.0 0.00 0.00 0.00 37 1010.0
20260506020026 51 332 2.0 5.0 0.00 0.00 0.00 37 1009.9
20260506015503 51 360 1.0 3.0 0.00 0.00 0.00 36 1009.8
20260506015003 51 342 1.0 8.0 0.00 0.00 0.00 36 1009.7
20260506014523 51 352 3.0 8.0 0.00 0.00 0.00 35 1009.6
20260506014003 51 288 1.0 8.0 0.00 0.00 0.00 35 1009.5
20260506013504 51 327 1.0 6.0 0.00 0.00 0.00 35 1009.4
20260506013031 52 313 2.0 5.0 0.00 0.00 0.00 35 1009.3
20260506012504 52 336 2.0 5.0 0.00 0.00 0.00 34 1009.3
20260506012004 52 351 2.0 10.0 0.00 0.00 0.00 34 1009.3
20260506011524 52 11 2.0 10.0 0.00 0.00 0.00 34 1009.1
20260506011003 52 326 3.0 8.0 0.00 0.00 0.00 34 1009.0
20260506010504 52 325 1.0 9.0 0.00 0.00 0.00 34 1009.0
20260506010024 52 348 4.0 9.0 0.00 0.00 0.00 33 1009.1
20260506005459 52 352 3.0 8.0 0.00 0.00 0.00 33 1009.0
20260506005004 53 263 3.0 11.0 0.00 0.00 0.00 33 1009.0
20260506004528 53 25 3.0 11.0 0.00 0.00 0.00 33 1009.0
20260506004006 53 323 4.0 13.0 0.00 0.00 0.00 32 1009.0
20260506003512 53 350 4.0 13.0 0.00 0.00 0.00 32 1008.9
20260506003024 53 42 2.0 10.0 0.00 0.00 0.00 32 1008.8
20260506002510 54 334 4.0 12.0 0.00 0.00 0.00 32 1008.8
20260506002009 54 174 5.0 12.0 0.00 0.00 0.00 32 1008.7
20260506001528 54 317 3.0 10.0 0.00 0.00 0.00 32 1008.7
20260506001002 54 330 6.0 10.0 0.00 0.00 0.00 31 1008.7
20260506000507 54 315 5.0 10.0 0.00 0.00 0.00 31 1008.7
20260506000026 55 350 3.0 13.0 0.00 0.00 0.00 30 1008.5
20260505235503 55 300 2.0 13.0 0.00 0.00 0.00 31 1008.6
20260505235012 55 25 2.0 9.0 0.00 0.00 0.00 30 1008.5
20260505234504 55 268 2.0 17.0 0.00 0.00 0.00 30 1008.5
20260505234003 55 325 5.0 17.0 0.00 0.00 0.00 30 1008.5
20260505233510 55 319 2.0 12.0 0.00 0.00 0.00 30 1008.5
20260505233029 55 24 3.0 12.0 0.00 0.00 0.00 30 1008.5
20260505232505 56 319 6.0 17.0 0.00 0.00 0.00 29 1008.5
20260505232015 56 246 6.0 17.0 0.00 0.00 0.00 29 1008.5
20260505231507 56 284 12.0 16.0 0.00 0.00 0.00 29 1008.6
20260505231011 56 289 6.0 14.0 0.00 0.00 0.00 29 1008.6
20260505230512 56 184 4.0 14.0 0.00 0.00 0.00 29 1008.5
20260505230015 56 303 7.0 14.0 0.00 0.00 0.00 29 1008.6
20260505225504 56 248 7.0 13.0 0.00 0.00 0.00 29 1008.5
20260505225011 56 352 3.0 13.0 0.00 0.00 0.00 29 1008.5
20260505224510 56 304 8.0 13.0 0.00 0.00 0.00 28 1008.6
20260505224012 57 346 6.0 15.0 0.00 0.00 0.00 28 1008.5
20260505223514 57 360 7.0 15.0 0.00 0.00 0.00 28 1008.5
20260505223011 58 294 6.0 13.0 0.00 0.00 0.00 28 1008.3
20260505222507 58 315 7.0 20.0 0.00 0.00 0.00 28 1008.3
20260505222012 57 261 6.0 20.0 0.00 0.00 0.00 29 1008.3
20260505221528 57 252 8.0 16.0 0.00 0.00 0.00 29 1008.0
20260505221006 57 254 6.0 21.0 0.00 0.00 0.00 28 1008.0
20260505220515 57 144 9.0 21.0 0.00 0.00 0.00 28 1008.2
20260505220010 58 273 8.0 15.0 0.00 0.00 0.00 1008.3
20260505215508 57 257 4.0 15.0 0.00 0.00 0.00 27 1008.2
20260505215010 58 160 4.0 10.0 0.00 0.00 0.00 27 1008.3
20260505214512 57 265 2.0 10.0 0.00 0.00 0.00 28 1008.3
20260505214008 57 345 7.0 16.0 0.00 0.00 0.00 28 1008.3
20260505213512 57 103 5.0 16.0 0.00 0.00 0.00 27 1008.3
20260505213022 58 336 8.0 20.0 0.00 0.00 0.00 27 1008.3
20260505212507 57 289 10.0 20.0 0.00 0.00 0.00 28 1008.3
20260505212015 58 275 5.0 15.0 0.00 0.00 0.00 29 1008.3
20260505211530 57 320 7.0 15.0 0.00 0.00 0.00 29 1008.2
20260505211013 57 348 7.0 15.0 0.00 0.00 0.00 29 1008.2
20260505210509 57 306 6.0 18.0 0.00 0.00 0.00 30 1008.2
20260505210028 56 288 6.0 20.0 0.00 0.00 0.00 28 1008.2
20260505205511 57 311 7.0 20.0 0.00 0.00 0.00 29 1008.2
20260505205013 57 269 6.0 15.0 0.00 0.00 0.00 29 1008.2
20260505204519 57 258 8.0 19.0 0.00 0.00 0.00 29 1008.3
20260505204008 57 240 11.0 19.0 0.00 0.00 0.00 30 1008.3
20260505203503 56 190 9.0 17.0 0.00 0.00 0.00 29 1008.4
20260505203049 56 246 9.0 17.0 0.00 0.00 0.00 30 1008.6
20260505202510 57 147 5.0 17.0 0.00 0.00 0.00 29 1008.6
20260505202006 57 261 7.0 12.0 0.00 0.00 0.00 30 1008.7
20260505201530 56 337 5.0 26.0 0.00 0.00 0.00 29 1008.6
20260505201006 57 308 11.0 26.0 0.00 0.00 0.00 29 1008.7
20260505200511 58 280 4.0 17.0 0.00 0.00 0.00 1008.6
20260505200022 57 316 8.0 17.0 0.00 0.00 0.00 30 1008.6
20260505195511 57 237 8.0 20.0 0.00 0.00 0.00 30 1008.6
20260505195005 57 254 12.0 20.0 0.00 0.00 0.00 28 1008.8
20260505194521 57 243 10.0 18.0 0.00 0.00 0.00 30 1008.8
20260505194010 57 270 9.0 18.0 0.00 0.00 0.00 29 1008.7
20260505193506 57 191 8.0 23.0 0.00 0.00 0.00 29 1008.8
20260505193032 56 281 12.0 20.0 0.00 0.00 0.00 29 1008.9
20260505192512 56 227 11.0 19.0 0.00 0.00 0.00 30 1008.7
20260505192006 56 246 7.0 19.0 0.00 0.00 0.00 30 1008.8
20260505191526 55 278 7.0 19.0 0.00 0.00 0.00 30 1008.7
20260505191011 56 213 11.0 19.0 0.00 0.00 0.00 30 1008.9
20260505190505 56 274 7.0 14.0 0.00 0.00 0.00 29 1008.8
20260505190034 56 325 8.0 14.0 0.00 0.00 0.00 31 1008.5
20260505185512 56 257 8.0 14.0 0.00 0.00 0.00 31 1008.6
20260505185008 56 251 5.0 18.0 0.00 0.00 0.00 34 1008.7
20260505184534 55 263 8.0 21.0 0.00 0.00 0.00 34 1008.7
20260505184011 55 261 8.0 21.0 0.00 0.00 0.00 33 1008.5
20260505183512 55 273 6.0 17.0 0.00 0.00 0.00 34 1008.6
20260505183027 54 273 6.0 18.0 0.00 0.00 0.00 34 1008.6
20260505182507 54 258 11.0 16.0 0.00 0.00 0.00 33 1008.6
20260505182012 54 265 8.0 16.0 0.00 0.00 0.00 33 1008.5
20260505181530 54 219 8.0 16.0 0.00 0.00 0.00 34 1008.5
20260505181010 54 257 8.0 15.0 0.00 0.00 0.00 34 1008.3
20260505180511 54 232 7.0 18.0 0.00 0.00 0.00 34 1008.4
20260505180029 54 252 8.0 19.0 0.00 0.00 0.00 33 1008.4
20260505175512 54 151 9.0 19.0 0.00 0.00 0.00 32 1008.4
20260505175007 54 262 8.0 18.0 0.00 0.00 0.00 33 1008.3
20260505174538 55 329 7.0 18.0 0.00 0.00 0.00 32 1008.3
20260505174008 55 221 9.0 16.0 0.00 0.00 0.00 31 1008.5
20260505173507 55 303 7.0 15.0 0.00 0.00 0.00 29 1008.3
20260505173029 56 313 6.0 19.0 0.00 0.00 0.00 29 1008.5
20260505172509 55 205 5.0 22.0 0.00 0.00 0.00 29 1008.3
20260505172013 55 222 13.0 22.0 0.00 0.00 0.00 28 1008.6
20260505171528 55 264 9.0 21.0 0.00 0.00 0.00 32 1008.5
20260505171007 54 241 9.0 20.0 0.00 0.00 0.00 33 1008.3
20260505170503 54 257 7.0 18.0 0.00 0.00 0.00 33 1008.0
20260505170017 54 311 9.0 21.0 0.00 0.00 0.00 32 1008.1
20260505165503 55 253 8.0 21.0 0.00 0.00 0.00 1008.0
20260505165003 55 265 11.0 25.0 0.00 0.00 0.00 1008.0
20260505164511 54 207 13.0 25.0 0.00 0.00 0.00 1007.9
20260505164004 54 223 7.0 19.0 0.00 0.00 0.00 1007.9
20260505163504 55 271 12.0 18.0 0.00 0.00 0.00 1008.1
20260505163013 54 238 5.0 20.0 0.00 0.00 0.00 34 1008.1
20260505162503 55 267 12.0 22.0 0.00 0.00 0.00 34 1008.3
20260505162003 54 265 13.0 22.0 0.00 0.00 0.00 1008.0
20260505161512 55 211 9.0 17.0 0.00 0.00 0.00 33 1008.3
20260505161005 54 246 6.0 17.0 0.00 0.00 0.00 33 1008.2
20260505160504 54 208 6.0 20.0 0.00 0.00 0.00 32 1008.2
20260505153016 53 352 8.0 24.0 0.00 0.00 0.00 37 1008.2
20260505152507 52 255 9.0 24.0 0.00 0.00 0.00 37 1008.3
20260505152005 52 241 9.0 19.0 0.00 0.00 0.00 36 1008.3
20260505151519 53 271 7.0 19.0 0.00 0.00 0.00 36 1008.3
20260505151003 52 276 7.0 17.0 0.00 0.00 0.00 36 1008.0
20260505150503 52 240 8.0 21.0 0.00 0.00 0.00 37 1008.0
20260505140506 51 225 7.0 17.0 0.00 0.00 0.00 40 1008.6
20260505125008 47 227 3.0 9.0 0.00 0.00 0.00 47 1008.6
20260505124520 47 240 4.0 9.0 0.00 0.00 0.00 47 1008.7
20260505124008 47 150 4.0 9.0 0.00 0.00 0.00 47 1008.7
20260505123507 47 248 2.0 7.0 0.00 0.00 0.00 46 1008.2
20260505123021 47 272 1.0 11.0 0.00 0.00 0.00 47 1007.9
20260505122507 47 275 6.0 11.0 0.00 0.00 0.00 46 1008.3
20260505122007 47 261 3.0 5.0 0.00 0.00 0.00 48 1008.6
20260505121523 46 206 2.0 5.0 0.00 0.00 0.00 49 1008.9
20260505121006 46 219 3.0 5.0 0.00 0.00 0.00 48 1008.9
20260505120508 46 206 2.0 6.0 0.00 0.00 0.00 48 1008.9
20260505120021 46 207 1.0 6.0 0.00 0.00 0.00 47 1008.2
20260505115508 46 257 1.0 3.0 0.00 0.00 0.00 46 1007.7
20260505115006 46 254 0.0 3.0 0.00 0.00 0.00 47 1007.4
20260505114522 46 269 1.0 5.0 0.00 0.00 0.00 46 1007.2
20260505114007 45 249 2.0 5.0 0.00 0.00 0.00 46 1007.2
20260505113507 45 306 1.0 3.0 0.00 0.00 0.00 46 1006.9
20260505113023 45 317 0.0 3.0 0.00 0.00 0.00 46 1006.7
20260505112505 46 334 0.0 2.0 0.00 0.00 0.00 46 1006.9
20260505112007 46 298 0.0 3.0 0.00 0.00 0.00 46 1007.1
20260505111524 45 298 0.0 3.0 0.00 0.00 0.00 46 1007.2
20260505111006 45 229 0.0 3.0 0.00 0.00 0.00 45 1007.1
20260505110503 45 257 1.0 3.0 0.00 0.00 0.00 45 1007.3
20260505102005 46 330 3.0 8.0 0.00 0.00 0.00 42 1006.5
20260505101522 46 340 1.0 9.0 0.00 0.00 0.00 41 1006.5
20260505101004 46 281 5.0 10.0 0.00 0.00 0.00 41 1006.5
20260505100503 47 306 5.0 10.0 0.00 0.00 0.00 41 1006.6
20260505100024 47 207 1.0 9.0 0.00 0.00 0.00 41 1006.2
20260505095507 47 326 2.0 8.0 0.00 0.00 0.00 41 1006.0
20260505095002 47 317 1.0 9.0 0.00 0.00 0.00 41 1006.2
20260505094521 47 267 3.0 10.0 0.00 0.00 0.00 41 1006.3
20260505094003 47 343 3.0 11.0 0.00 0.00 0.00 41 1006.2
20260505093503 47 339 2.0 11.0 0.00 0.00 0.00 41 1006.3
20260505093030 47 267 5.0 11.0 0.00 0.00 0.00 42 1006.3
20260505092504 47 277 5.0 11.0 0.00 0.00 0.00 43 1006.4
20260505092004 47 298 4.0 11.0 0.00 0.00 0.00 44 1006.5